| time (UTC) | temp F | wind direction | speed MPH | gust MPH | rain 1hr in | rain 24hr in | rain mn in | humidity % | barometer mb |
| 20260904071521 | 72 | 108 | 0.0 | 0.0 | 0.00 | 0.09 | 0.09 | 97 | 1013.8 |
| 20260904071016 | 72 | 101 | 0.0 | 0.0 | 0.00 | 0.09 | 0.09 | 97 | 1013.5 |
| 20260904070515 | 72 | 104 | 0.0 | 0.0 | 0.05 | 0.09 | 0.09 | 97 | 1013.2 |
| 20260904070010 | 72 | 106 | 0.0 | 0.0 | 0.05 | 0.09 | 0.09 | 97 | 1013.5 |
| 20260904065505 | 72 | 106 | 0.0 | 0.0 | 0.00 | 0.08 | 0.08 | 97 | 1013.5 |
| 20260904065001 | 73 | 107 | 0.0 | 0.0 | 0.00 | 0.08 | 0.08 | 97 | 1013.7 |
| 20260904064456 | 73 | 106 | 0.0 | 0.0 | 0.00 | 0.08 | 0.08 | 97 | 1014.0 |
| 20260904063951 | 73 | 108 | 0.0 | 0.0 | 0.00 | 0.08 | 0.08 | 97 | 1013.9 |
| 20260904063448 | 73 | 109 | 0.0 | 0.0 | 0.00 | 0.08 | 0.08 | 97 | 1014.2 |
| 20260904062942 | 73 | 114 | 0.0 | 0.0 | 0.00 | 0.08 | 0.08 | 97 | 1014.2 |
| 20260904062439 | 73 | 123 | 0.0 | 0.0 | 0.00 | 0.08 | 0.08 | 97 | 1014.5 |
| 20260904061934 | 73 | 112 | 0.0 | 0.0 | 0.00 | 0.08 | 0.08 | 97 | 1014.4 |
| 20260904061430 | 72 | 91 | 0.0 | 0.0 | 0.00 | 0.08 | 0.08 | 97 | 1014.4 |
| 20260904060926 | 72 | 116 | 0.0 | 0.0 | 0.00 | 0.08 | 0.08 | 97 | 1014.1 |
| 20260904060422 | 73 | 110 | 0.0 | 0.0 | 0.00 | 0.08 | 0.08 | 97 | 1014.5 |
| 20260904055917 | 73 | 109 | 0.0 | 0.0 | 0.00 | 0.08 | 0.08 | 97 | 1014.3 |
| 20260904055413 | 73 | 97 | 0.0 | 0.0 | 0.00 | 0.08 | 0.08 | 97 | 1014.5 |
| 20260904054908 | 73 | 126 | 0.0 | 0.0 | 0.00 | 0.08 | 0.08 | 96 | 1014.4 |
| 20260904054404 | 73 | 102 | 0.0 | 0.0 | 0.00 | 0.08 | 0.08 | 96 | 1014.4 |
| 20260904053859 | 73 | 106 | 0.0 | 0.0 | 0.00 | 0.08 | 0.08 | 96 | 1014.7 |
| 20260904053358 | 72 | 114 | 0.0 | 0.0 | 0.00 | 0.08 | 0.08 | 96 | 1014.8 |
| 20260904052854 | 72 | 98 | 0.0 | 1.0 | 0.00 | 0.08 | 0.08 | 96 | 1014.9 |
| 20260904052351 | 72 | 107 | 0.0 | 0.0 | 0.00 | 0.08 | 0.08 | 96 | 1014.7 |
| 20260904051847 | 72 | 119 | 0.0 | 1.0 | 0.00 | 0.08 | 0.08 | 96 | 1014.7 |
| 20260904051342 | 73 | 120 | 0.0 | 1.0 | 0.07 | 0.08 | 0.08 | 96 | 1014.8 |
| 20260904050837 | 72 | 101 | 0.0 | 0.0 | 0.31 | 0.08 | 0.08 | 96 | 1014.9 |
| 20260904050334 | 72 | 106 | 0.0 | 0.0 | 0.24 | 0.07 | 0.07 | 96 | 1014.9 |
| 20260904045833 | 72 | 95 | 0.0 | 1.0 | 0.00 | 0.03 | 0.03 | 96 | 1015.1 |
| 20260904045329 | 72 | 106 | 0.0 | 1.0 | 0.00 | 0.03 | 0.03 | 96 | 1014.7 |
| 20260904044828 | 73 | 115 | 0.0 | 0.0 | 0.12 | 0.03 | 0.03 | 96 | 1014.8 |
| 20260904044325 | 73 | 110 | 0.0 | 0.0 | 0.17 | 0.03 | 0.03 | 96 | 1015.0 |
| 20260904043821 | 73 | 101 | 0.0 | 0.0 | 0.00 | 0.00 | 0.00 | 96 | 1015.2 |
| 20260904043317 | 73 | 118 | 0.0 | 0.0 | 0.00 | 0.00 | 0.00 | 96 | 1015.1 |
| 20260904042812 | 73 | 113 | 0.0 | 0.0 | 0.00 | 0.00 | 0.00 | 96 | 1015.0 |
| 20260904042308 | 73 | 118 | 0.0 | 0.0 | 0.00 | 0.00 | 0.00 | 96 | 1015.2 |
| 20260904041808 | 73 | 119 | 0.0 | 0.0 | 0.00 | 0.00 | 0.00 | 96 | 1015.1 |
| 20260904041304 | 73 | 131 | 0.0 | 0.0 | 0.00 | 0.00 | 0.00 | 96 | 1015.3 |
| 20260904040800 | 73 | 145 | 1.0 | 1.0 | 0.00 | 0.00 | 0.00 | 96 | 1015.3 |
| 20260904040255 | 73 | 136 | 0.0 | 1.0 | 0.00 | 0.00 | 0.00 | 96 | 1015.2 |
| 20260904035751 | 73 | 128 | 0.0 | 0.0 | 0.00 | 0.19 | 0.19 | 96 | 1015.2 |
| 20260904035247 | 73 | 121 | 0.0 | 0.0 | 0.00 | 0.19 | 0.19 | 96 | 1015.4 |
| 20260904034745 | 73 | 108 | 0.0 | 0.0 | 0.00 | 0.19 | 0.19 | 96 | 1015.2 |
| 20260904034242 | 73 | 125 | 0.0 | 0.0 | 0.00 | 0.19 | 0.19 | 96 | 1015.3 |
| 20260904033737 | 73 | 122 | 0.0 | 1.0 | 0.00 | 0.19 | 0.19 | 96 | 1015.1 |
| 20260904033234 | 72 | 104 | 0.0 | 0.0 | 0.00 | 0.19 | 0.19 | 96 | 1015.2 |
| 20260904032730 | 72 | 134 | 0.0 | 0.0 | 0.00 | 0.19 | 0.19 | 96 | 1015.2 |
| 20260904032228 | 72 | 104 | 0.0 | 0.0 | 0.00 | 0.19 | 0.19 | 96 | 1015.2 |
| 20260904031723 | 72 | 108 | 0.0 | 0.0 | 0.00 | 0.19 | 0.19 | 95 | 1015.2 |
| 20260904031219 | 72 | 106 | 0.0 | 0.0 | 0.00 | 0.19 | 0.19 | 95 | 1015.2 |
| 20260904030714 | 72 | 110 | 0.0 | 0.0 | 0.00 | 0.19 | 0.19 | 95 | 1015.2 |
| 20260904030209 | 73 | 108 | 0.0 | 0.0 | 0.00 | 0.19 | 0.19 | 95 | 1015.2 |
| 20260904025706 | 73 | 109 | 0.0 | 0.0 | 0.00 | 0.19 | 0.19 | 95 | 1015.4 |
| 20260904025201 | 73 | 113 | 0.0 | 0.0 | 0.00 | 0.19 | 0.19 | 95 | 1015.5 |
| 20260904024656 | 73 | 122 | 0.0 | 0.0 | 0.00 | 0.19 | 0.19 | 95 | 1015.3 |
| 20260904024152 | 73 | 125 | 0.0 | 0.0 | 0.00 | 0.19 | 0.19 | 95 | 1015.9 |
| 20260904023648 | 73 | 129 | 0.0 | 0.0 | 0.00 | 0.19 | 0.19 | 95 | 1015.7 |
| 20260904023144 | 73 | 121 | 0.0 | 1.0 | 0.00 | 0.19 | 0.19 | 95 | 1015.8 |
| 20260904022643 | 73 | 108 | 0.0 | 0.0 | 0.00 | 0.19 | 0.19 | 95 | 1015.9 |
| 20260904022140 | 73 | 99 | 0.0 | 1.0 | 0.00 | 0.19 | 0.19 | 95 | 1016.0 |
| 20260904021636 | 73 | 111 | 0.0 | 0.0 | 0.00 | 0.19 | 0.19 | 95 | 1016.1 |
| 20260904021131 | 73 | 115 | 0.0 | 0.0 | 0.00 | 0.19 | 0.19 | 95 | 1016.2 |
| 20260904020627 | 73 | 98 | 0.0 | 0.0 | 0.00 | 0.19 | 0.19 | 95 | 1016.3 |
| 20260904020121 | 73 | 112 | 0.0 | 0.0 | 0.00 | 0.19 | 0.19 | 95 | 1016.2 |
| 20260904015615 | 73 | 101 | 0.0 | 1.0 | 0.00 | 0.19 | 0.19 | 95 | 1016.2 |
| 20260904015114 | 73 | 107 | 0.0 | 0.0 | 0.00 | 0.19 | 0.19 | 95 | 1016.3 |
| 20260904014608 | 73 | 106 | 0.0 | 0.0 | 0.00 | 0.19 | 0.19 | 95 | 1016.1 |
| 20260904014103 | 73 | 101 | 0.0 | 0.0 | 0.00 | 0.19 | 0.19 | 95 | 1016.1 |
| 20260904013600 | 73 | 110 | 0.0 | 0.0 | 0.00 | 0.19 | 0.19 | 95 | 1015.9 |
| 20260904013056 | 73 | 117 | 0.0 | 1.0 | 0.00 | 0.19 | 0.19 | 95 | 1016.1 |
| 20260904012556 | 73 | 108 | 0.0 | 0.0 | 0.00 | 0.19 | 0.19 | 95 | 1016.2 |
| 20260904012056 | 73 | 108 | 0.0 | 0.0 | 0.00 | 0.19 | 0.19 | 95 | 1016.4 |
| 20260904011555 | 73 | 107 | 0.0 | 0.0 | 0.00 | 0.19 | 0.19 | 95 | 1016.3 |
| 20260904011051 | 73 | 106 | 0.0 | 0.0 | 0.00 | 0.19 | 0.19 | 95 | 1016.1 |
| 20260904010547 | 73 | 106 | 0.0 | 0.0 | 0.00 | 0.19 | 0.19 | 95 | 1016.3 |
| 20260904010043 | 73 | 106 | 0.0 | 0.0 | 0.00 | 0.19 | 0.19 | 95 | 1016.0 |
| 20260904005543 | 73 | 112 | 0.0 | 0.0 | 0.00 | 0.19 | 0.19 | 94 | 1016.0 |
| 20260904005038 | 73 | 114 | 0.0 | 0.0 | 0.00 | 0.19 | 0.19 | 94 | 1016.1 |
| 20260904004533 | 73 | 108 | 0.0 | 0.0 | 0.00 | 0.19 | 0.19 | 94 | 1016.3 |
| 20260904004028 | 74 | 106 | 0.0 | 1.0 | 0.00 | 0.19 | 0.19 | 94 | 1016.1 |
| 20260904003524 | 74 | 108 | 0.0 | 0.0 | 0.00 | 0.19 | 0.19 | 94 | 1016.1 |
| 20260904003020 | 74 | 107 | 0.0 | 0.0 | 0.00 | 0.19 | 0.19 | 94 | 1016.0 |
| 20260904002516 | 74 | 110 | 0.0 | 0.0 | 0.00 | 0.19 | 0.19 | 94 | 1015.8 |
| 20260904002015 | 74 | 109 | 0.0 | 0.0 | 0.00 | 0.19 | 0.19 | 94 | 1015.8 |
| 20260904001511 | 75 | 108 | 0.0 | 0.0 | 0.00 | 0.19 | 0.19 | 94 | 1015.9 |
| 20260904001010 | 75 | 111 | 0.0 | 0.0 | 0.00 | 0.19 | 0.19 | 94 | 1015.7 |
| 20260904000509 | 75 | 111 | 0.0 | 0.0 | 0.00 | 0.19 | 0.19 | 94 | 1015.7 |
| 20260904000005 | 75 | 111 | 0.0 | 0.0 | 0.00 | 0.19 | 0.19 | 94 | 1015.8 |
| 20260903235500 | 75 | 120 | 0.0 | 0.0 | 0.00 | 0.19 | 0.19 | 94 | 1015.7 |
| 20260903234955 | 75 | 109 | 0.0 | 0.0 | 0.00 | 0.19 | 0.19 | 93 | 1015.7 |
| 20260903234451 | 75 | 108 | 0.0 | 0.0 | 0.00 | 0.19 | 0.19 | 93 | 1015.5 |
| 20260903233947 | 76 | 106 | 0.0 | 0.0 | 0.00 | 0.19 | 0.19 | 93 | 1015.6 |
| 20260903233443 | 76 | 108 | 0.0 | 0.0 | 0.00 | 0.19 | 0.19 | 93 | 1015.4 |
| 20260903232937 | 76 | 112 | 0.0 | 0.0 | 0.00 | 0.19 | 0.19 | 92 | 1015.1 |
| 20260903232433 | 76 | 113 | 0.0 | 0.0 | 0.00 | 0.19 | 0.19 | 92 | 1015.4 |
| 20260903231932 | 77 | 116 | 0.0 | 0.0 | 0.00 | 0.19 | 0.19 | 92 | 1015.2 |
| 20260903231427 | 77 | 113 | 0.0 | 0.0 | 0.00 | 0.19 | 0.19 | 91 | 1015.3 |
| 20260903230922 | 77 | 127 | 1.0 | 1.0 | 0.00 | 0.19 | 0.19 | 91 | 1015.4 |
| 20260903230418 | 78 | 119 | 0.0 | 1.0 | 0.00 | 0.19 | 0.19 | 90 | 1015.5 |
| 20260903225914 | 78 | 119 | 0.0 | 1.0 | 0.00 | 0.19 | 0.19 | 88 | 1015.5 |
| 20260903225409 | 79 | 122 | 1.0 | 1.0 | 0.00 | 0.19 | 0.19 | 88 | 1015.7 |
| 20260903224906 | 79 | 119 | 0.0 | 0.0 | 0.00 | 0.19 | 0.19 | 87 | 1015.6 |
| 20260903224401 | 80 | 116 | 0.0 | 0.0 | 0.00 | 0.19 | 0.19 | 86 | 1015.6 |
| 20260903223857 | 80 | 116 | 0.0 | 0.0 | 0.00 | 0.19 | 0.19 | 85 | 1015.7 |
| 20260903223356 | 81 | 116 | 0.0 | 0.0 | 0.00 | 0.19 | 0.19 | 83 | 1015.8 |
| 20260903222851 | 82 | 117 | 0.0 | 0.0 | 0.00 | 0.19 | 0.19 | 81 | 1015.7 |
| 20260903222350 | 82 | 113 | 0.0 | 0.0 | 0.00 | 0.19 | 0.19 | 80 | 1015.6 |
| 20260903221845 | 82 | 113 | 0.0 | 0.0 | 0.00 | 0.19 | 0.19 | 80 | 1015.9 |
| 20260903221344 | 83 | 110 | 0.0 | 0.0 | 0.00 | 0.19 | 0.19 | 79 | 1015.9 |
| 20260903220842 | 83 | 110 | 0.0 | 0.0 | 0.00 | 0.19 | 0.19 | 80 | 1015.8 |
| 20260903220336 | 83 | 107 | 0.0 | 0.0 | 0.00 | 0.19 | 0.19 | 79 | 1015.6 |
| 20260903215834 | 83 | 112 | 0.0 | 1.0 | 0.00 | 0.19 | 0.19 | 78 | 1015.7 |
| 20260903215331 | 84 | 113 | 0.0 | 0.0 | 0.00 | 0.19 | 0.19 | 76 | 1015.6 |
| 20260903214829 | 84 | 97 | 0.0 | 1.0 | 0.00 | 0.19 | 0.19 | 76 | 1015.7 |
| 20260903214326 | 84 | 124 | 0.0 | 1.0 | 0.00 | 0.19 | 0.19 | 75 | 1015.6 |
| 20260903213820 | 84 | 80 | 1.0 | 1.0 | 0.00 | 0.19 | 0.19 | 74 | 1015.7 |
| 20260903213315 | 84 | 98 | 1.0 | 1.0 | 0.00 | 0.19 | 0.19 | 75 | 1015.6 |
| 20260903212811 | 84 | 110 | 0.0 | 0.0 | 0.00 | 0.19 | 0.19 | 77 | 1015.7 |
| 20260903212308 | 84 | 69 | 0.0 | 0.0 | 0.00 | 0.19 | 0.19 | 77 | 1015.6 |
| 20260903211806 | 84 | 113 | 0.0 | 0.0 | 0.00 | 0.19 | 0.19 | 78 | 1015.3 |
| 20260903211303 | 84 | 96 | 0.0 | 2.0 | 0.00 | 0.19 | 0.19 | 75 | 1015.5 |
| 20260903210758 | 84 | 98 | 1.0 | 1.0 | 0.00 | 0.19 | 0.19 | 74 | 1015.6 |
| 20260903210254 | 85 | 353 | 2.0 | 3.0 | 0.00 | 0.19 | 0.19 | 74 | 1015.6 |
| 20260903205748 | 86 | 102 | 1.0 | 2.0 | 0.00 | 0.19 | 0.19 | 72 | 1015.7 |
| 20260903205248 | 85 | 104 | 1.0 | 2.0 | 0.00 | 0.19 | 0.19 | 74 | 1015.7 |
| 20260903204743 | 85 | 106 | 0.0 | 0.0 | 0.00 | 0.19 | 0.19 | 76 | 1015.5 |
| 20260903204239 | 85 | 124 | 0.0 | 1.0 | 0.00 | 0.19 | 0.19 | 76 | 1015.7 |
| 20260903203734 | 86 | 152 | 1.0 | 1.0 | 0.00 | 0.19 | 0.19 | 73 | 1015.9 |
| 20260903203230 | 86 | 102 | 0.0 | 1.0 | 0.00 | 0.19 | 0.19 | 74 | 1015.5 |
| 20260903202723 | 84 | 101 | 0.0 | 1.0 | 0.00 | 0.19 | 0.19 | 74 | 1015.6 |
| 20260903202220 | 84 | 86 | 1.0 | 2.0 | 0.00 | 0.19 | 0.19 | 74 | 1015.8 |
| 20260903201719 | 85 | 111 | 1.0 | 2.0 | 0.00 | 0.19 | 0.19 | 75 | 1015.8 |
| 20260903201215 | 84 | 105 | 2.0 | 3.0 | 0.00 | 0.19 | 0.19 | 76 | 1015.7 |
| 20260903200714 | 85 | 35 | 1.0 | 2.0 | 0.00 | 0.19 | 0.19 | 76 | 1015.6 |
| 20260903200209 | 86 | 70 | 2.0 | 2.0 | 0.00 | 0.19 | 0.19 | 74 | 1015.6 |
| 20260903195705 | 84 | 132 | 1.0 | 2.0 | 0.00 | 0.19 | 0.19 | 75 | 1015.6 |
| 20260903195201 | 84 | 90 | 1.0 | 1.0 | 0.00 | 0.19 | 0.19 | 76 | 1015.9 |
| 20260903194700 | 83 | 118 | 2.0 | 2.0 | 0.00 | 0.19 | 0.19 | 78 | 1015.6 |
| 20260903194156 | 83 | 114 | 0.0 | 0.0 | 0.00 | 0.19 | 0.19 | 78 | 1015.7 |
| 20260903193651 | 83 | 117 | 0.0 | 2.0 | 0.00 | 0.19 | 0.19 | 79 | 1015.9 |
| 20260903193146 | 82 | 113 | 0.0 | 1.0 | 0.00 | 0.19 | 0.19 | 80 | 1016.0 |
| 20260903192643 | 82 | 260 | 1.0 | 1.0 | 0.00 | 0.19 | 0.19 | 79 | 1016.0 |
| 20260903192142 | 83 | 107 | 0.0 | 1.0 | 0.00 | 0.19 | 0.19 | 79 | 1015.9 |
| 20260903191639 | 82 | 110 | 0.0 | 2.0 | 0.00 | 0.19 | 0.19 | 78 | 1015.9 |
| 20260903191139 | 83 | 214 | 2.0 | 2.0 | 0.00 | 0.19 | 0.19 | 76 | 1016.0 |
| 20260903190639 | 83 | 69 | 2.0 | 3.0 | 0.00 | 0.19 | 0.19 | 76 | 1016.0 |
| 20260903190133 | 83 | 78 | 1.0 | 2.0 | 0.00 | 0.19 | 0.19 | 76 | 1016.0 |
| 20260903185628 | 82 | 86 | 1.0 | 3.0 | 0.00 | 0.19 | 0.19 | 78 | 1016.2 |
| 20260903185123 | 83 | 296 | 2.0 | 3.0 | 0.00 | 0.19 | 0.19 | 76 | 1016.3 |
| 20260903184620 | 84 | 103 | 1.0 | 3.0 | 0.00 | 0.19 | 0.19 | 74 | 1016.2 |
| 20260903184116 | 84 | 110 | 1.0 | 2.0 | 0.00 | 0.19 | 0.19 | 74 | 1016.4 |
| 20260903183614 | 83 | 51 | 1.0 | 2.0 | 0.00 | 0.19 | 0.19 | 74 | 1016.4 |
| 20260903183109 | 83 | 128 | 1.0 | 2.0 | 0.00 | 0.19 | 0.19 | 76 | 1016.4 |
| 20260903182608 | 83 | 113 | 0.0 | 2.0 | 0.00 | 0.19 | 0.19 | 76 | 1016.6 |
| 20260903182105 | 84 | 104 | 2.0 | 3.0 | 0.00 | 0.19 | 0.19 | 75 | 1016.6 |
| 20260903181603 | 83 | 78 | 0.0 | 1.0 | 0.00 | 0.19 | 0.19 | 76 | 1016.4 |
| 20260903181057 | 83 | 278 | 3.0 | 5.0 | 0.00 | 0.19 | 0.19 | 76 | 1016.4 |
| 20260903180553 | 84 | 16 | 1.0 | 2.0 | 0.00 | 0.19 | 0.19 | 76 | 1016.6 |
| 20260903180047 | 83 | 69 | 1.0 | 3.0 | 0.00 | 0.19 | 0.19 | 78 | 1016.4 |
| 20260903175546 | 83 | 88 | 1.0 | 6.0 | 0.00 | 0.19 | 0.19 | 77 | 1016.8 |
| 20260903175045 | 84 | 96 | 1.0 | 2.0 | 0.00 | 0.19 | 0.19 | 76 | 1016.9 |
| 20260903174540 | 83 | 120 | 2.0 | 2.0 | 0.00 | 0.19 | 0.19 | 79 | 1016.7 |
| 20260903174035 | 83 | 290 | 5.0 | 6.0 | 0.00 | 0.19 | 0.19 | 76 | 1016.7 |
| 20260903173530 | 81 | 271 | 3.0 | 3.0 | 0.00 | 0.19 | 0.19 | 79 | 1016.8 |
| 20260903173026 | 80 | 104 | 1.0 | 3.0 | 0.00 | 0.19 | 0.19 | 81 | 1017.0 |
| 20260903172521 | 80 | 113 | 1.0 | 2.0 | 0.00 | 0.19 | 0.19 | 83 | 1017.1 |
| 20260903172017 | 79 | 112 | 1.0 | 2.0 | 0.00 | 0.19 | 0.19 | 84 | 1017.2 |
| 20260903171511 | 79 | 5 | 1.0 | 3.0 | 0.00 | 0.19 | 0.19 | 85 | 1017.2 |
| 20260903171007 | 79 | 53 | 1.0 | 1.0 | 0.00 | 0.19 | 0.19 | 85 | 1017.1 |
| 20260903170506 | 78 | 187 | 1.0 | 3.0 | 0.00 | 0.19 | 0.19 | 85 | 1017.3 |
| 20260903170001 | 78 | 262 | 3.0 | 3.0 | 0.00 | 0.19 | 0.19 | 85 | 1017.3 |
| 20260903165459 | 78 | 114 | 0.0 | 2.0 | 0.00 | 0.19 | 0.19 | 86 | 1017.0 |
| 20260903164955 | 78 | 138 | 1.0 | 2.0 | 0.00 | 0.19 | 0.19 | 85 | 1017.4 |
| 20260903164450 | 78 | 236 | 2.0 | 6.0 | 0.00 | 0.19 | 0.19 | 85 | 1017.1 |
| 20260903163949 | 78 | 169 | 1.0 | 2.0 | 0.00 | 0.19 | 0.19 | 86 | 1017.3 |
| 20260903163445 | 78 | 357 | 3.0 | 5.0 | 0.00 | 0.19 | 0.19 | 87 | 1017.4 |
| 20260903162941 | 77 | 72 | 3.0 | 3.0 | 0.00 | 0.19 | 0.19 | 88 | 1017.7 |
| 20260903162437 | 77 | 120 | 0.0 | 2.0 | 0.00 | 0.19 | 0.19 | 89 | 1017.7 |
| 20260903161933 | 77 | 309 | 2.0 | 5.0 | 0.00 | 0.19 | 0.19 | 88 | 1017.6 |
| 20260903161428 | 77 | 340 | 3.0 | 6.0 | 0.00 | 0.19 | 0.19 | 87 | 1017.4 |
| 20260903160924 | 77 | 280 | 4.0 | 6.0 | 0.00 | 0.19 | 0.19 | 87 | 1017.5 |
| 20260903160423 | 77 | 72 | 1.0 | 7.0 | 0.00 | 0.19 | 0.19 | 90 | 1017.6 |
| 20260903155921 | 76 | 6 | 2.0 | 3.0 | 0.00 | 0.19 | 0.19 | 90 | 1017.9 |
| 20260903155417 | 76 | 128 | 3.0 | 7.0 | 0.00 | 0.19 | 0.19 | 89 | 1017.9 |
| 20260903154913 | 76 | 137 | 2.0 | 7.0 | 0.00 | 0.19 | 0.19 | 90 | 1018.1 |
| 20260903154409 | 75 | 35 | 1.0 | 5.0 | 0.00 | 0.19 | 0.19 | 91 | 1018.0 |
| 20260903153909 | 75 | 323 | 4.0 | 7.0 | 0.00 | 0.19 | 0.19 | 92 | 1017.9 |
| 20260903153404 | 74 | 122 | 3.0 | 6.0 | 0.00 | 0.19 | 0.19 | 92 | 1018.0 |
| 20260903152901 | 74 | 282 | 2.0 | 5.0 | 0.00 | 0.19 | 0.19 | 93 | 1017.7 |
| 20260903152356 | 74 | 109 | 2.0 | 5.0 | 0.00 | 0.19 | 0.19 | 94 | 1017.8 |
| 20260903151851 | 74 | 63 | 0.0 | 3.0 | 0.00 | 0.19 | 0.19 | 94 | 1018.1 |
| 20260903151347 | 73 | 16 | 2.0 | 3.0 | 0.00 | 0.19 | 0.19 | 94 | 1018.0 |
| 20260903150846 | 73 | 98 | 1.0 | 3.0 | 0.00 | 0.19 | 0.19 | 94 | 1018.1 |
| 20260903150341 | 73 | 113 | 1.0 | 5.0 | 0.00 | 0.19 | 0.19 | 94 | 1018.0 |
| 20260903145836 | 73 | 297 | 2.0 | 5.0 | 0.00 | 0.19 | 0.19 | 94 | 1017.9 |
| 20260903145331 | 73 | 83 | 2.0 | 2.0 | 0.00 | 0.19 | 0.19 | 94 | 1018.1 |
| 20260903144830 | 72 | 305 | 2.0 | 7.0 | 0.00 | 0.19 | 0.19 | 95 | 1017.8 |
| 20260903144326 | 73 | 104 | 0.0 | 2.0 | 0.00 | 0.19 | 0.19 | 95 | 1018.2 |
| 20260903143821 | 72 | 106 | 0.0 | 1.0 | 0.00 | 0.19 | 0.19 | 95 | 1018.1 |
| 20260903143318 | 72 | 112 | 0.0 | 5.0 | 0.00 | 0.19 | 0.19 | 95 | 1018.1 |
| 20260903142813 | 72 | 69 | 3.0 | 5.0 | 0.00 | 0.19 | 0.19 | 95 | 1018.1 |
| 20260903142309 | 71 | 287 | 3.0 | 3.0 | 0.00 | 0.19 | 0.19 | 96 | 1018.1 |
| 20260903141805 | 71 | 118 | 1.0 | 1.0 | 0.00 | 0.19 | 0.19 | 96 | 1018.1 |
| 20260903141301 | 71 | 132 | 2.0 | 3.0 | 0.00 | 0.19 | 0.19 | 96 | 1018.1 |
| 20260903140800 | 71 | 91 | 3.0 | 6.0 | 0.00 | 0.19 | 0.19 | 97 | 1018.2 |
| 20260903140255 | 70 | 110 | 1.0 | 2.0 | 0.00 | 0.19 | 0.19 | 97 | 1018.2 |
| 20260903135751 | 70 | 306 | 3.0 | 7.0 | 0.00 | 0.19 | 0.19 | 97 | 1018.2 |
| 20260903135246 | 70 | 79 | 0.0 | 5.0 | 0.00 | 0.19 | 0.19 | 98 | 1018.4 |
| 20260903134745 | 69 | 102 | 0.0 | 3.0 | 0.00 | 0.19 | 0.19 | 98 | 1018.4 |
| 20260903134241 | 69 | 102 | 1.0 | 1.0 | 0.00 | 0.19 | 0.19 | 98 | 1018.3 |
| 20260903133738 | 70 | 306 | 3.0 | 3.0 | 0.00 | 0.19 | 0.19 | 98 | 1018.1 |
| 20260903133235 | 70 | 85 | 2.0 | 2.0 | 0.00 | 0.19 | 0.19 | 98 | 1018.2 |
| 20260903132734 | 70 | 108 | 0.0 | 1.0 | 0.00 | 0.19 | 0.19 | 98 | 1018.1 |
| 20260903132230 | 69 | 132 | 1.0 | 1.0 | 0.00 | 0.19 | 0.19 | 98 | 1018.1 |
| 20260903131725 | 69 | 73 | 1.0 | 5.0 | 0.00 | 0.19 | 0.19 | 98 | 1018.1 |
| 20260903131224 | 69 | 108 | 1.0 | 2.0 | 0.00 | 0.19 | 0.19 | 98 | 1017.9 |
| 20260903130719 | 69 | 126 | 0.0 | 0.0 | 0.00 | 0.19 | 0.19 | 98 | 1018.3 |
| 20260903130214 | 69 | 118 | 0.0 | 2.0 | 0.00 | 0.19 | 0.19 | 98 | 1018.2 |
| 20260903125712 | 69 | 128 | 0.0 | 0.0 | 0.00 | 0.19 | 0.19 | 98 | 1018.4 |
| 20260903125208 | 69 | 122 | 0.0 | 2.0 | 0.00 | 0.19 | 0.19 | 98 | 1018.7 |
| 20260903124707 | 68 | 120 | 0.0 | 2.0 | 0.00 | 0.19 | 0.19 | 98 | 1018.6 |
| 20260903124202 | 68 | 112 | 0.0 | 0.0 | 0.00 | 0.19 | 0.19 | 98 | 1018.8 |
| 20260903123701 | 69 | 85 | 0.0 | 1.0 | 0.00 | 0.19 | 0.19 | 98 | 1018.8 |
| 20260903123200 | 68 | 97 | 0.0 | 1.0 | 0.00 | 0.19 | 0.19 | 98 | 1018.9 |
| 20260903122659 | 68 | 115 | 0.0 | 0.0 | 0.00 | 0.19 | 0.19 | 98 | 1018.7 |
| 20260903122154 | 68 | 108 | 0.0 | 1.0 | 0.00 | 0.19 | 0.19 | 98 | 1018.7 |
| 20260903121653 | 68 | 105 | 0.0 | 0.0 | 0.00 | 0.19 | 0.19 | 98 | 1018.8 |
| 20260903121149 | 68 | 113 | 0.0 | 0.0 | 0.00 | 0.19 | 0.19 | 98 | 1018.5 |
| 20260903120648 | 68 | 107 | 0.0 | 0.0 | 0.00 | 0.19 | 0.19 | 98 | 1018.8 |
| 20260903120143 | 68 | 144 | 0.0 | 0.0 | 0.00 | 0.19 | 0.19 | 98 | 1018.9 |
| 20260903115641 | 68 | 103 | 0.0 | 0.0 | 0.00 | 0.19 | 0.19 | 98 | 1018.9 |
| 20260903115137 | 68 | 100 | 0.0 | 0.0 | 0.00 | 0.19 | 0.19 | 98 | 1018.6 |
| 20260903114632 | 68 | 123 | 0.0 | 1.0 | 0.00 | 0.19 | 0.19 | 98 | 1018.8 |
| 20260903114127 | 68 | 86 | 0.0 | 2.0 | 0.00 | 0.19 | 0.19 | 98 | 1018.6 |
| 20260903113622 | 68 | 104 | 0.0 | 2.0 | 0.00 | 0.19 | 0.19 | 98 | 1018.9 |
| 20260903113118 | 68 | 30 | 2.0 | 2.0 | 0.00 | 0.19 | 0.19 | 98 | 1018.8 |
| 20260903112615 | 68 | 28 | 1.0 | 1.0 | 0.00 | 0.19 | 0.19 | 98 | 1019.0 |
| 20260903112114 | 68 | 101 | 0.0 | 1.0 | 0.00 | 0.19 | 0.19 | 98 | 1018.8 |
| 20260903111613 | 67 | 124 | 0.0 | 1.0 | 0.00 | 0.19 | 0.19 | 98 | 1018.9 |
| 20260903111109 | 67 | 114 | 0.0 | 0.0 | 0.00 | 0.19 | 0.19 | 98 | 1018.6 |
| 20260903110605 | 67 | 118 | 0.0 | 0.0 | 0.00 | 0.19 | 0.19 | 98 | 1018.8 |
| 20260903110100 | 67 | 98 | 0.0 | 0.0 | 0.00 | 0.19 | 0.19 | 98 | 1019.0 |
| 20260903105555 | 67 | 104 | 0.0 | 0.0 | 0.00 | 0.19 | 0.19 | 98 | 1018.9 |
| 20260903105050 | 67 | 92 | 2.0 | 2.0 | 0.00 | 0.19 | 0.19 | 98 | 1018.8 |
| 20260903104549 | 68 | 93 | 0.0 | 3.0 | 0.00 | 0.19 | 0.19 | 98 | 1018.4 |
| 20260903104046 | 68 | 12 | 2.0 | 3.0 | 0.00 | 0.19 | 0.19 | 98 | 1018.7 |
| 20260903103541 | 68 | 335 | 6.0 | 7.0 | 0.00 | 0.19 | 0.19 | 98 | 1019.1 |
| 20260903103037 | 68 | 95 | 2.0 | 2.0 | 0.00 | 0.19 | 0.19 | 98 | 1019.1 |
| 20260903102533 | 68 | 3 | 2.0 | 3.0 | 0.00 | 0.19 | 0.19 | 98 | 1018.7 |
| 20260903102032 | 68 | 108 | 1.0 | 1.0 | 0.00 | 0.19 | 0.19 | 98 | 1018.8 |
| 20260903101526 | 68 | 320 | 2.0 | 3.0 | 0.00 | 0.19 | 0.19 | 98 | 1018.4 |
| 20260903101022 | 68 | 92 | 1.0 | 3.0 | 0.00 | 0.19 | 0.19 | 98 | 1018.4 |
| 20260903100516 | 68 | 91 | 0.0 | 2.0 | 0.00 | 0.19 | 0.19 | 98 | 1018.5 |
| 20260903100015 | 68 | 105 | 0.0 | 1.0 | 0.00 | 0.19 | 0.19 | 98 | 1018.2 |
| 20260903095514 | 68 | 104 | 1.0 | 2.0 | 0.00 | 0.19 | 0.19 | 98 | 1018.4 |
| 20260903095009 | 68 | 75 | 1.0 | 5.0 | 0.00 | 0.19 | 0.19 | 98 | 1018.5 |
| 20260903094508 | 68 | 347 | 4.0 | 8.0 | 0.00 | 0.19 | 0.19 | 98 | 1018.4 |
| 20260903094004 | 68 | 18 | 0.0 | 5.0 | 0.00 | 0.19 | 0.19 | 98 | 1018.1 |
| 20260903093504 | 68 | 103 | 1.0 | 3.0 | 0.00 | 0.19 | 0.19 | 98 | 1018.5 |
| 20260903093000 | 68 | 96 | 1.0 | 3.0 | 0.00 | 0.19 | 0.19 | 98 | 1018.1 |
| 20260903092459 | 68 | 108 | 0.0 | 0.0 | 0.00 | 0.19 | 0.19 | 98 | 1018.4 |
| 20260903091959 | 67 | 92 | 1.0 | 2.0 | 0.00 | 0.19 | 0.19 | 98 | 1018.6 |
| 20260903091456 | 67 | 97 | 0.0 | 1.0 | 0.00 | 0.19 | 0.19 | 98 | 1018.5 |
| 20260903090952 | 67 | 97 | 0.0 | 1.0 | 0.00 | 0.19 | 0.19 | 98 | 1018.4 |
| 20260903090448 | 67 | 98 | 0.0 | 1.0 | 0.00 | 0.19 | 0.19 | 98 | 1018.6 |
| 20260903085946 | 67 | 117 | 0.0 | 3.0 | 0.00 | 0.19 | 0.19 | 98 | 1018.4 |
| 20260903085445 | 67 | 111 | 0.0 | 0.0 | 0.00 | 0.19 | 0.19 | 98 | 1018.4 |
| 20260903084940 | 67 | 111 | 0.0 | 1.0 | 0.00 | 0.19 | 0.19 | 98 | 1018.3 |
| 20260903084438 | 67 | 118 | 0.0 | 0.0 | 0.00 | 0.19 | 0.19 | 98 | 1018.2 |
| 20260903083933 | 67 | 114 | 0.0 | 0.0 | 0.00 | 0.19 | 0.19 | 98 | 1018.4 |
| 20260903083430 | 67 | 112 | 0.0 | 0.0 | 0.00 | 0.19 | 0.19 | 98 | 1018.5 |
| 20260903082928 | 67 | 110 | 0.0 | 0.0 | 0.00 | 0.19 | 0.19 | 98 | 1018.8 |
| 20260903082424 | 67 | 108 | 0.0 | 0.0 | 0.00 | 0.19 | 0.19 | 98 | 1019.0 |
| 20260903081918 | 67 | 107 | 0.0 | 0.0 | 0.00 | 0.19 | 0.19 | 98 | 1019.2 |
| 20260903081414 | 67 | 107 | 0.0 | 0.0 | 0.00 | 0.19 | 0.19 | 98 | 1018.9 |
| 20260903080910 | 67 | 106 | 0.0 | 0.0 | 0.00 | 0.19 | 0.19 | 98 | 1019.3 |
| 20260903080406 | 67 | 342 | 1.0 | 2.0 | 0.00 | 0.19 | 0.19 | 98 | 1019.2 |
| 20260903075901 | 67 | 105 | 0.0 | 0.0 | 0.00 | 0.19 | 0.19 | 98 | 1019.3 |
| 20260903075357 | 66 | 89 | 0.0 | 1.0 | 0.00 | 0.19 | 0.19 | 98 | 1018.9 |
| 20260903074856 | 66 | 116 | 0.0 | 1.0 | 0.00 | 0.19 | 0.19 | 98 | 1018.9 |
| 20260903074351 | 66 | 107 | 0.0 | 0.0 | 0.00 | 0.19 | 0.19 | 98 | 1018.9 |
| 20260903073847 | 66 | 111 | 0.0 | 0.0 | 0.07 | 0.19 | 0.19 | 98 | 1019.1 |
| 20260903073341 | 66 | 115 | 0.0 | 0.0 | 0.07 | 0.19 | 0.19 | 98 | 1019.3 |
| 20260903072837 | 66 | 108 | 0.0 | 0.0 | 0.00 | 0.18 | 0.18 | 98 | 1019.2 |
| 20260903072333 | 66 | 116 | 0.0 | 0.0 | 0.00 | 0.18 | 0.18 | 98 | 1018.9 |
| 20260903071830 | 66 | 115 | 0.0 | 0.0 | 0.00 | 0.18 | 0.18 | 98 | 1019.2 |